Iowa City, IA

6:01 PM CDT on June 23, 2017 (GMT -0500)
Iowa City Municipal

Weather History for KIOW - October, 2012

Change the Weather History Date:

Thursday, October 25, 2012

  Actual Average Record
Temperature  
Mean Temperature 55 °F 49 °F  
Max Temperature 71 °F 59 °F 81 °F (1989)
Min Temperature 38 °F 39 °F 23 °F (1966)
Degree Days  
Heating Degree Days 10 16  
Month to date heating degree days 305 307  
Since 1 July heating degree days 444 419  
Cooling Degree Days 0 0  
Month to date cooling degree days 9 10  
Year to date cooling degree days 1266 912  
Growing Degree Days 5 (Base 50)    
Moisture  
Dew Point 49 °F    
Average Humidity 77    
Maximum Humidity 89    
Minimum Humidity 64    
Precipitation  
Precipitation 0.08 in 0.09 in 0.79 in (1986)
Month to date precipitation 3.41 2.30  
Year to date precipitation 23.20 31.84  
Sea Level Pressure  
Sea Level Pressure 29.81 in    
Wind  
Wind Speed 17 mph (West)    
Max Wind Speed 28 mph    
Max Gust Speed 36 mph    
Visibility 8 miles    
Events Rain    
T = Trace of Precipitation, MM = Missing Value Source: NWS Daily Summary

Daily Weather History Graph

Daily Weather History Graph

Search for Another Location

Airport or City:

Trip Planner

Search our weather history database for the weather conditions in past years. The results will help you decide how hot, cold, wet, or windy it might be!

Date:

Astronomy

Oct. 25, 2012 Rise Set
Actual Time 7:30 AM CDT 6:09 PM CDT
Civil Twilight 7:01 AM CDT 6:37 PM CDT
Nautical Twilight 6:29 AM CDT 7:10 PM CDT
Astronomical Twilight 5:57 AM CDT 7:42 PM CDT
Moon 3:58 PM CDT (10/25) 3:24 AM CDT (10/25)
Length of Visible Light 11h 35m
Length of Day
10h 38m
Waxing Gibbous, 84% of the Moon is Illuminated
Oct 25
Waxing Gibbous
Oct 29
Full
Nov 6
Last Quarter
Nov 13
New
Nov 20
First Quarter

Hourly Weather History & Observations

Time (CDT) Temp. Windchill Dew Point Humidity Pressure Visibility Wind Dir Wind Speed Gust Speed Precip Events Conditions
12:52 AM 70.0 °F - 63.0 °F 78% 29.69 in 10.0 mi South 12.7 mph - N/A   Clear
1:52 AM 70.0 °F - 62.1 °F 76% 29.68 in 10.0 mi South 10.4 mph - N/A   Clear
2:52 AM 70.0 °F - 62.1 °F 76% 29.68 in 10.0 mi South 12.7 mph - N/A   Overcast
3:52 AM 70.0 °F - 62.1 °F 76% 29.65 in 10.0 mi South 13.8 mph 23.0 mph N/A   Partly Cloudy
4:52 AM 70.0 °F - 61.0 °F 73% 29.63 in 10.0 mi South 15.0 mph - N/A   Clear
5:52 AM 69.1 °F - 61.0 °F 75% 29.65 in 10.0 mi South 15.0 mph - N/A   Clear
8:52 AM 69.1 °F - 62.1 °F 78% 29.63 in 10.0 mi South 12.7 mph - N/A   Overcast
9:01 AM 69.8 °F - 62.6 °F 78% 29.65 in 10.0 mi South 16.1 mph 21.9 mph N/A   Overcast
9:52 AM 71.1 °F - 62.1 °F 73% 29.62 in 10.0 mi South 20.7 mph 29.9 mph N/A   Overcast
10:14 AM 71.6 °F - 62.6 °F 73% 29.62 in 10.0 mi South 18.4 mph 32.2 mph N/A   Overcast
10:35 AM 62.6 °F - 57.2 °F 82% 29.65 in 10.0 mi West 17.3 mph - N/A   Overcast
10:52 AM 60.1 °F - 55.0 °F 83% 29.65 in 10.0 mi West 20.7 mph - N/A   Overcast
11:16 AM 57.2 °F - 53.6 °F 88% 29.68 in 10.0 mi West 17.3 mph - N/A   Overcast
11:52 AM 52.0 °F - 48.9 °F 89% 29.72 in 4.0 mi NW 20.7 mph 26.5 mph 0.00 in   Overcast
12:06 PM 50.0 °F - 48.2 °F 94% 29.73 in 2.5 mi NW 17.3 mph - 0.00 in Rain Light Rain
12:15 PM 48.2 °F - 48.2 °F 100% 29.73 in 4.0 mi WNW 18.4 mph 28.8 mph 0.01 in Rain Light Rain
12:24 PM 48.2 °F - 46.4 °F 93% 29.74 in 7.0 mi NW 19.6 mph 31.1 mph 0.01 in Rain Light Rain
12:33 PM 46.4 °F 38.5 °F 46.4 °F 100% 29.75 in 4.0 mi WNW 21.9 mph 29.9 mph 0.01 in Rain Light Rain
12:40 PM 46.4 °F 38.7 °F 46.4 °F 100% 29.76 in 4.0 mi WNW 20.7 mph 27.6 mph 0.01 in Rain Light Rain
12:52 PM 46.9 °F - 46.9 °F 100% 29.77 in 3.0 mi WNW 17.3 mph 31.1 mph 0.02 in Rain Light Rain
1:11 PM 46.4 °F 39.5 °F 46.4 °F 100% 29.77 in 3.0 mi NW 17.3 mph 25.3 mph 0.02 in Rain Light Rain
1:25 PM 46.4 °F 38.7 °F 46.4 °F 100% 29.77 in 7.0 mi WNW 20.7 mph 27.6 mph 0.02 in Rain Light Rain
1:29 PM 46.4 °F 38.5 °F 46.4 °F 100% 29.77 in 8.0 mi WNW 21.9 mph 28.8 mph 0.02 in Rain Light Rain
1:52 PM 46.0 °F 38.3 °F 46.0 °F 100% 29.79 in 10.0 mi NW 20.7 mph 28.8 mph 0.02 in   Overcast
3:52 PM 44.1 °F 37.4 °F 43.0 °F 96% 29.90 in 10.0 mi NW 13.8 mph 32.2 mph 0.00 in   Overcast
4:52 PM 44.1 °F 36.5 °F 37.9 °F 79% 29.95 in 10.0 mi NW 17.3 mph 32.2 mph N/A   Overcast
5:52 PM 44.1 °F 36.8 °F 37.0 °F 76% 29.99 in 10.0 mi NW 16.1 mph 27.6 mph N/A   Overcast
6:52 PM 42.1 °F 33.1 °F 35.1 °F 76% 30.06 in 10.0 mi NW 20.7 mph 27.6 mph N/A   Overcast
8:52 PM 41.0 °F 33.1 °F 32.0 °F 70% 30.14 in 10.0 mi NW 15.0 mph 35.7 mph N/A   Overcast
9:52 PM 39.9 °F 30.5 °F 30.9 °F 70% 30.17 in 10.0 mi NW 19.6 mph 31.1 mph N/A   Overcast
9:59 PM 39.2 °F 30.5 °F 30.2 °F 70% 30.17 in 10.0 mi NNW 16.1 mph 31.1 mph N/A   Overcast
10:48 PM 39.2 °F 30.2 °F 30.2 °F 70% 30.20 in 10.0 mi NW 17.3 mph 29.9 mph N/A   Overcast
10:52 PM 39.9 °F 31.8 °F 28.9 °F 65% 30.21 in 10.0 mi NW 15.0 mph 29.9 mph N/A   Overcast